Вернуться в каталог

CZ-6A DEB

АктивенPO
NORAD 61340·DEBRIS·🇨🇳 China

Запущен Aug 6, 2024 с Taiyuan Satellite Launch Center

Loading…

Ближайшие Пролёты (ближайшие 24 часа)

TLE

СвежийSource: Space-Track

Эпоха: Sep 14, 2026, 10:31 UTC

1 61340U 24140VD  26257.43823235  .00001005  00000-0  13751-3 0  9993
2 61340  89.0151 259.5997 0165653 207.0501 152.2015 14.68548098108623

Отслеживайте CZ-6A DEB в реальном времени с AllMySat

Download on the App Store